Boulder City, NV

10:26 AM PST on February 07, 2016 (GMT -0800)
Boulder City

Weather History for KBVU - August, 2013

Change the Weather History Date:

Thursday, August 1, 2013

  Actual Average (KLAS) Record (KLAS)
Temperature  
Mean Temperature 91 °F 92 °F  
Max Temperature 104 °F 104 °F 116 °F (1979)
Min Temperature 78 °F 81 °F 66 °F (1940)
Degree Days  
Heating Degree Days 0 0  
Month to date heating degree days 0  
Since 1 June heating degree days 1  
Since 1 July heating degree days 0  
Cooling Degree Days 26 28  
Month to date cooling degree days 28  
Year to date cooling degree days 2082  
Since 1 June cooling degree days 1532  
Growing Degree Days 41 (Base 50)    
Moisture  
Dew Point 34 °F    
Average Humidity 14    
Maximum Humidity 30    
Minimum Humidity 4    
Precipitation  
Precipitation 0.00 in 0.01 in 0.24 in (2012)
Month to date precipitation 0.01  
Year to date precipitation 2.49  
Snow  
Snow 0.00 in 0.00 in 0.00 in ()
Month to date snowfall 0.0  
Since 1 June snowfall 0.0  
Since 1 July snowfall 0.0  
Snow Depth -    
Sea Level Pressure  
Sea Level Pressure 29.87 in    
Wind  
Wind Speed 7 mph (SSW)    
Max Wind Speed 24 mph    
Max Gust Speed 36 mph    
Visibility 10 miles    
Events      
T = Trace of Precipitation, MM = Missing Value Source: NWS Daily Summary

Daily Weather History Graph

Daily Weather History Graph

Search for Another Location

Airport or City:

Trip Planner

Search our weather history database for the weather conditions in past years. The results will help you decide how hot, cold, wet, or windy it might be!

Date:

Astronomy

Aug. 01, 2013 Rise Set
Actual Time 5:47 AM PDT 7:43 PM PDT
Civil Twilight 5:18 AM PDT 8:11 PM PDT
Nautical Twilight 4:44 AM PDT 8:46 PM PDT
Astronomical Twilight 4:07 AM PDT 9:22 PM PDT
Moon 1:27 AM PDT (8/1) 3:55 PM PDT (8/1)
Length of Visible Light 14h 53m
Length of Day
13h 56m
Waning Crescent, 22% of the Moon is Illuminated
Aug 1
Waning Crescent
Aug 6
New
Aug 14
First Quarter
Aug 20
Full
Aug 28
Last Quarter

Hourly Weather History & Observations

Time (PDT) Temp. Dew Point Humidity Pressure Visibility Wind Dir Wind Speed Gust Speed Precip Events Conditions
12:15 AM 86.0 °F 48.2 °F 27% 29.93 in 10.0 mi Calm Calm - N/A   Clear
12:35 AM 89.6 °F 44.6 °F 21% 29.93 in 10.0 mi South 5.8 mph - N/A   Clear
12:55 AM 89.6 °F 44.6 °F 21% 29.92 in 10.0 mi South 3.5 mph - N/A   Clear
1:15 AM 87.8 °F 42.8 °F 21% 29.92 in 10.0 mi SSE 4.6 mph - N/A   Clear
1:35 AM 84.2 °F 46.4 °F 27% 29.91 in 10.0 mi Calm Calm - N/A   Clear
1:55 AM 87.8 °F 41.0 °F 19% 29.91 in 10.0 mi Calm Calm - N/A   Clear
2:15 AM 87.8 °F 39.2 °F 18% 29.91 in 10.0 mi SSE 4.6 mph - N/A   Clear
2:35 AM 84.2 °F 39.2 °F 20% 29.91 in 10.0 mi Calm Calm - N/A   Clear
2:55 AM 82.4 °F 44.6 °F 26% 29.91 in 10.0 mi Calm Calm - N/A   Clear
3:15 AM 82.4 °F 46.4 °F 28% 29.91 in 10.0 mi Calm Calm - N/A   Clear
3:35 AM 84.2 °F 41.0 °F 22% 29.91 in 10.0 mi ESE 3.5 mph - N/A   Clear
3:55 AM 87.8 °F 41.0 °F 19% 29.91 in 10.0 mi Calm Calm - N/A   Clear
4:15 AM 86.0 °F 39.2 °F 19% 29.91 in 10.0 mi Calm Calm - N/A   Clear
4:35 AM 86.0 °F 39.2 °F 19% 29.91 in 10.0 mi WNW 4.6 mph - N/A   Clear
4:55 AM 84.2 °F 39.2 °F 20% 29.91 in 10.0 mi Calm Calm - N/A   Clear
5:15 AM 82.4 °F 41.0 °F 23% 29.91 in 10.0 mi NW 3.5 mph - N/A   Clear
5:35 AM 78.8 °F 44.6 °F 30% 29.92 in 10.0 mi Calm Calm - N/A   Clear
5:55 AM 82.4 °F 41.0 °F 23% 29.92 in 10.0 mi Calm Calm - N/A   Clear
6:15 AM 78.8 °F 44.6 °F 30% 29.93 in 10.0 mi Calm Calm - N/A   Clear
6:35 AM 80.6 °F 44.6 °F 28% 29.93 in 10.0 mi Calm Calm - N/A   Clear
6:55 AM 84.2 °F 44.6 °F 25% 29.94 in 10.0 mi NNW 3.5 mph - N/A   Clear
7:15 AM 86.0 °F 41.0 °F 20% 29.94 in 10.0 mi Calm Calm - N/A   Clear
7:35 AM 89.6 °F 39.2 °F 17% 29.94 in 10.0 mi Calm Calm - N/A   Clear
7:55 AM 89.6 °F 39.2 °F 17% 29.95 in 10.0 mi West 3.5 mph - N/A   Clear
8:15 AM 89.6 °F 39.2 °F 17% 29.94 in 10.0 mi Calm Calm - N/A   Clear
8:35 AM 91.4 °F 37.4 °F 15% 29.94 in 10.0 mi Calm Calm - N/A   Clear
8:55 AM 91.4 °F 37.4 °F 15% 29.94 in 10.0 mi Calm Calm - N/A   Clear
9:15 AM 93.2 °F 37.4 °F 14% 29.94 in 10.0 mi SSW 4.6 mph - N/A   Clear
9:35 AM 95.0 °F 37.4 °F 13% 29.93 in 10.0 mi SSW 4.6 mph - N/A   Clear
9:55 AM 95.0 °F 39.2 °F 14% 29.93 in 10.0 mi South 12.7 mph 16.1 mph N/A   Clear
10:15 AM 96.8 °F 39.2 °F 14% 29.93 in 10.0 mi SSE 12.7 mph 20.7 mph N/A   Clear
10:35 AM 98.6 °F 39.2 °F 13% 29.93 in 10.0 mi SSE 13.8 mph 20.7 mph N/A   Clear
10:55 AM 100.4 °F 39.2 °F 12% 29.92 in 10.0 mi South 16.1 mph 21.9 mph N/A   Clear
11:15 AM 100.4 °F 39.2 °F 12% 29.91 in 10.0 mi South 17.3 mph 23.0 mph N/A   Clear
11:35 AM 100.4 °F 39.2 °F 12% 29.91 in 10.0 mi South 15.0 mph 33.4 mph N/A   Clear
11:55 AM 100.4 °F 39.2 °F 12% 29.90 in 10.0 mi SSW 16.1 mph 24.2 mph N/A   Clear
12:15 PM 102.2 °F 39.2 °F 11% 29.89 in 10.0 mi SSW 16.1 mph 28.8 mph N/A   Clear
12:35 PM 102.2 °F 39.2 °F 11% 29.88 in 10.0 mi South 23.0 mph 28.8 mph N/A   Clear
12:55 PM 104.0 °F 37.4 °F 10% 29.87 in 10.0 mi South 19.6 mph 27.6 mph N/A   Clear
1:15 PM 104.0 °F 37.4 °F 10% 29.87 in 10.0 mi South 23.0 mph 29.9 mph N/A   Clear
1:35 PM 104.0 °F 39.2 °F 11% 29.86 in 10.0 mi SSW 23.0 mph 33.4 mph N/A   Clear
1:55 PM 104.0 °F 39.2 °F 11% 29.85 in 10.0 mi SSW 23.0 mph 31.1 mph N/A   Clear
2:15 PM 104.0 °F 39.2 °F 11% 29.85 in 10.0 mi South 20.7 mph 32.2 mph N/A   Clear
2:35 PM 104.0 °F 39.2 °F 11% 29.84 in 10.0 mi South 21.9 mph 32.2 mph N/A   Clear
2:55 PM 104.0 °F 37.4 °F 10% 29.83 in 10.0 mi SSW 18.4 mph 33.4 mph N/A   Clear
3:15 PM 104.0 °F 37.4 °F 10% 29.82 in 10.0 mi South 19.6 mph 33.4 mph N/A   Clear
3:35 PM 104.0 °F 35.6 °F 9% 29.81 in 10.0 mi SSW 24.2 mph 31.1 mph N/A   Clear
3:55 PM 104.0 °F 33.8 °F 9% 29.81 in 10.0 mi South 21.9 mph 28.8 mph N/A   Clear
4:15 PM 104.0 °F 30.2 °F 8% 29.80 in 10.0 mi South 19.6 mph 35.7 mph N/A   Clear
4:35 PM 104.0 °F 26.6 °F 7% 29.80 in 10.0 mi South 21.9 mph 34.5 mph N/A   Clear
4:55 PM 104.0 °F 23.0 °F 6% 29.79 in 10.0 mi SSW 20.7 mph 27.6 mph N/A   Clear
5:15 PM 104.0 °F 23.0 °F 6% 29.79 in 10.0 mi SSW 17.3 mph 31.1 mph N/A   Clear
5:35 PM 104.0 °F 19.4 °F 5% 29.78 in 10.0 mi South 21.9 mph 25.3 mph N/A   Clear
5:55 PM 102.2 °F 15.8 °F 4% 29.78 in 10.0 mi WSW 20.7 mph 28.8 mph N/A   Clear
6:15 PM 102.2 °F 14.0 °F 4% 29.78 in 10.0 mi WSW 21.9 mph 26.5 mph N/A   Clear
6:35 PM 102.2 °F 14.0 °F 4% 29.79 in 10.0 mi WSW 18.4 mph 25.3 mph N/A   Clear
6:55 PM 100.4 °F 14.0 °F 4% 29.79 in 10.0 mi WSW 19.6 mph 24.2 mph N/A   Clear
7:15 PM 98.6 °F 17.6 °F 5% 29.79 in 10.0 mi WSW 13.8 mph - N/A   Clear
7:35 PM 96.8 °F 17.6 °F 6% 29.80 in 10.0 mi West 10.4 mph - N/A   Clear
7:55 PM 95.0 °F 19.4 °F 6% 29.80 in 10.0 mi WSW 10.4 mph - N/A   Clear
8:15 PM 95.0 °F 19.4 °F 6% 29.81 in 10.0 mi WSW 8.1 mph - N/A   Clear
8:35 PM 93.2 °F 17.6 °F 6% 29.81 in 10.0 mi SW 5.8 mph - N/A   Clear
8:55 PM 91.4 °F 19.4 °F 7% 29.82 in 10.0 mi South 3.5 mph - N/A   Clear
9:15 PM 91.4 °F 24.8 °F 9% 29.83 in 10.0 mi ENE 3.5 mph - N/A   Clear
9:35 PM 87.8 °F 24.8 °F 10% 29.83 in 10.0 mi Calm Calm - N/A   Clear
9:55 PM 86.0 °F 23.0 °F 10% 29.83 in 10.0 mi Calm Calm - N/A   Clear
10:15 PM 87.8 °F 19.4 °F 8% 29.83 in 10.0 mi West 4.6 mph - N/A   Clear
10:35 PM 84.2 °F 26.6 °F 12% 29.83 in 10.0 mi Calm Calm - N/A   Clear
10:55 PM 80.6 °F 35.6 °F 20% 29.84 in 10.0 mi Calm Calm - N/A   Clear
11:15 PM 78.8 °F 35.6 °F 21% 29.84 in 10.0 mi North 3.5 mph - N/A   Clear
11:55 PM 80.6 °F 30.2 °F 16% 29.84 in 10.0 mi East 4.6 mph - N/A   Clear